sat.trackr.live / text

‹ back to catalog

STARLINK-31754

NORAD 59488 · 2024-071E

PAYLOAD ACTIVE UNKNOWN

§ Identity

Operator
Country
US
Launch date
2024-04-13
Launch site
AFETR
Launch vehicle
Mass (kg)
RCS (m²)

Purposes: comms

External: N2YO · Heavens-Above · Gunter

§ Orbital elements

Epoch: 2026-09-20T12:16:38.637984Z

Period
94.27 min
Inclination
43.0035°
Eccentricity
0.0001128
Mean motion
15.27573670 rev/d
Perigee alt
482.3 km
Apogee alt
483.8 km
Semi-major
6,861.2 km
B*
4.4936e-5
RAAN
327.0586°
Arg perigee
254.5779°
Mean anomaly
105.4948°
Rev number
13,791

§ Raw data

STARLINK-317541 59488U 24071E   26263.51155831  .00000974  00000+0  44936-4 0  99952 59488  43.0035 327.0586 0001128 254.5779 105.4948 15.27573670137918

JSON: /api/v1/satellites/59488 · /tle

For live sub-satellite position, see the globe view (requires WebGL).

§ Visibility from observer

Set your observer location to see the next 7 days of passes ≥ 10°. The values pass through the URL so the page stays shareable.

No JS? Fill the form by hand. The geolocation button needs JavaScript.